Location: Dittelbrunn
(50.0738°N, 10.2196°E)
Time: 17:27:43
(UTC+00:00)

Resurs 1-3 - Pass Details

Date: 18 September 2020
Orbit: 631 x 632 km, 97.9° (Epoch: 30 October)

Event Time Altitude Azimuth Distance (km) Brightness Sun altitude
Exits shadow 20:01:13 31° 213° (SSW) 1,109 4.8 -24.2°
Maximum altitude 20:02:46 44° 261° (W) 881 4.6 -24.4°
Drops below altitude 10° 20:07:00 10° 334° (NNW) 2,026 7.0 -25.0°
Sets 20:09:18 0° 341° (NNW) 2,939 7.9 -25.3°
